Terminal Aerodrome Forecast
Issued by NWS Blacksburg, VA

Home | Current Version | Previous Version | Text Only | Print | Product List | Glossary On
Versions: 1 2 3 4 5 6 7 8 9 10 11 12 13 14 15 16 17 18 19 20 21 22 23 24 25 26 27 28 29 30 31 32 33 34 35 36 37 38 39 40 41 42 43 44 45 46 47 48 49 50
022
FTUS41 KRNK 021237 AAA
TAFLYH
TAF AMD
KLYH 021237Z 0213/0312 21006KT P6SM SCT040 BKN250
     FM022200 22009G18KT 5SM SHRA VCTS BKN050CB OVC110
      TEMPO 0301/0304 VRB15G25KT 1SM +TSRA BR OVC025CB
     FM030600 22005KT P6SM -SHRA VCTS BKN050CB OVC250
     FM030800 00000KT 4SM BR VCSH OVC015=

USA.gov is the U.S. government's official web portal to all federal, state and local government web resources and services.